www.pogodaiklimat.ru

Погода и климат >> Архив погоды >> Малайзия >> Бинталу


ПОГОДА в Бинталу

  • Прогноз погоды в Бинталу
  • Монитор погоды в Бинталу

АРХИВ ПОГОДЫ в Бинталу

Время (UTC), дата Ветер
(напр.,м/с)
 
Видим.   Явления Облачность Т
(С)
Тd
(С)
f
(%)
Тe
(С)
Тes
(С)
Комфортность P
(гПа)
Po
(гПа)
Тmin
(С)
Tmax
(С)
R
(мм)
R24
(мм)
S
(см)
06 13.02 ЮЗ 4 6000 м слаб. дождь 10/6 180 м
[Sc As op]
+25.1 +24.2 95 +35 +36 очень
душно
1013.9 1011.2 6
09 13.02 З 2 30 км 9/3 480 м
[Cu med, cong Ac trans Ci fib]
+27.8 +24.3 81 +39 +40 очень
душно
1011.8 1009.1
12 13.02 штиль 0 18 км {дождь} 9/3 480 м
[Sc Ac trans Ci fib]
+24.6 +23.8 95 +33 +33 очень
душно
1013.2 1010.5 +27.9 0.0
15 13.02 В 1 18 км 9/4 480 м
[Sc Ac trans Ci fib]
+24.6 +23.9 96 +34 +34 очень
душно
1014.6 1011.9
18 13.02 штиль 0 18 км 9/1 480 м
[Sc Ac trans Ci fib]
+24.3 +23.6 96 +33 +33 очень
душно
1013.0 1010.3
21 13.02 В 1 18 км 9/3 480 м
[Sc Ac trans Ci fib]
+23.7 +23.4 98 +32 +32 очень
душно
1011.8 1009.1
00 14.02 ЮВ 1 10 км дымка 9/3 <50 м
[Sc Ac trans Ci fib]
+24.3 +23.9 98 +33 +35 очень
душно
1013.1 1010.4 +23.0 6
03 14.02 С 1 18 км мгла 9/4 420 м
[Cu med, cong Ac trans Ci fib]
+29.2 +25.1 79 +42 +50 опасность
перегрева
1013.0 1010.3
06 14.02 СЗ 4 18 км мгла 9/3 480 м
[Cu med, cong Ac lent Ci fib]
+30.6 +25.8 76 +46 +51 опасность
перегрева
1010.4 1007.7
09 14.02 СЗ 4 18 км мгла 9/3 480 м
[Cu med, cong Ac lent Ci fib]
+29.0 +25.2 80 +42 +43 опасность
перегрева
1009.2 1006.5
12 14.02 С 3 15 км 9/4 420 м
[Sc Ac trans Ci fib]
+26.8 +24.7 88 +38 +38 очень
душно
1011.2 1008.5 +31.1
15 14.02 С 2 15 км 9/4 420 м
[Sc Ac trans]
+26.2 +24.6 91 +37 +37 очень
душно
1013.0 1010.3
18 14.02 ЮВ 1 18 км 9/5 420 м
[Sc Ac As]
+25.3 +24.7 96 +36 +36 очень
душно
1012.3 1009.6
21 14.02 В 1 18 км 9/5 420 м
[Sc Ac As]
+25.0 +24.5 97 +35 +35 очень
душно
1011.7 1009.0
00 15.02 ЮВ 1 30 км 9/4 50 м
[Sc Ac trans Ci fib]
+25.0 +24.2 95 +34 +36 очень
душно
1013.0 1010.3 +24.3
03 15.02 ЮЗ 2 30 км 9/5 420 м
[Cu med, cong Ac trans Ci fib]
+28.1 +24.6 81 +40 +45 очень
душно
1013.8 1011.1
06 15.02 СЗ 3 30 км 9/4 480 м
[Cu med, cong Ac trans Ci fib]
+30.0 +25.4 76 +44 +49 опасность
перегрева
1011.1 1008.4
09 15.02 СЗ 4 30 км 9/4 480 м
[Cu med, cong Ac lent Ci fib]
+30.2 +25.6 76 +44 +45 опасность
перегрева
1009.5 1006.8
12 15.02 СЗ 2 18 км 9/3 480 м
[Sc Ac lent Ci fib]
+26.7 +24.5 88 +38 +38 очень
душно
1011.7 1009.0 +31.2
15 15.02 штиль 0 18 км 9/3 480 м
[Sc Ac trans Ci fib]
+26.1 +25.1 94 +37 +37 очень
душно
1013.8 1011.1
18 15.02 С 2 18 км 9/3 480 м
[Sc Ac trans Ci fib]
+26.6 +24.8 90 +38 +38 очень
душно
1012.4 1009.7
21 15.02 В 2 18 км 9/3 480 м
[Sc Ac trans Ci fib]
+25.8 +24.9 95 +37 +37 очень
душно
1012.4 1009.7
00 16.02 В 2 30 км 9/4 50 м
[Sc Ac trans Ci fib]
+25.7 +24.4 93 +36 +37 очень
душно
1013.9 1011.2 +25.1
03 16.02 ЮВ 2 15 км мгла 9/5 480 м
[Cu med, cong Ac trans Ci fib]
+29.0 +25.4 81 +43 +48 опасность
перегрева
1014.3 1011.6
06 16.02 З 2 8000 м слаб. дождь 10/4 450 м
[Cb cap As op]
+26.6 +25.1 91 +38 +40 очень
душно
1012.1 1009.4 14
09 16.02 З 3 30 км {дождь} 9/4 480 м
[Sc Ac trans Ci fib]
+27.6 +24.6 84 +39 +40 очень
душно
1009.8 1007.1
12 16.02 штиль 0 18 км 9/3 480 м
[Sc Ac trans Ci fib]
+25.7 +24.8 95 +36 +36 очень
душно
1010.8 1008.1 +29.6 0.0
15 16.02 ЮЗ 1 18 км 9/3 480 м
[Sc Ac trans Ci fib]
+24.5 +24.4 99 +34 +34 очень
душно
1013.1 1010.4
18 16.02 З 1 18 км 9/4 480 м
[Sc Ac trans Ci fib]
+23.9 +23.6 98 +32 +32 очень
душно
1011.7 1009.0
21 16.02 штиль 0 18 км 9/5 150 м
[Sc Ac trans Ci fib]
+24.0 +23.9 99 +33 +33 очень
душно
1011.2 1008.5
00 17.02 ЮВ 3 12 км дымка 9/3 <50 м
[St Ac trans Ci fib]
+24.8 +24.4 98 +35 +36 очень
душно
1012.9 1010.2 +23.8 14
03 17.02 ЮЗ 3 30 км 9/5 480 м
[Cu hum Ac trans Ci fib]
+29.7 +24.9 75 +42 +47 опасность
перегрева
1013.4 1010.7
06 17.02 СЗ 3 30 км 9/5 450 м
[Cb cap Ac trans Ci ing]
+28.4 +25.3 83 +41 +46 опасность
перегрева
1011.1 1008.4
09 17.02 С 3 30 км 9/3 480 м
[Cu med, cong Ac trans Ci fib]
+28.9 +24.8 79 +41 +42 опасность
перегрева
1009.5 1006.8
12 17.02 СВ 1 18 км 9/4 480 м
[Sc Ac As]
+26.4 +25.0 92 +38 +38 очень
душно
1011.5 1008.8 +30.3
15 17.02 ЮВ 2 18 км 9/4 480 м
[Sc Ac As]
+25.2 +24.8 98 +36 +36 очень
душно
1013.3 1010.6
18 17.02 В 2 18 км 9/4 480 м
[Sc Ac As]
+24.4 +24.1 98 +34 +34 очень
душно
1011.7 1009.0
21 17.02 ЮВ 3 18 км 9/4 480 м
[Sc Ac trans Ci fib]
+24.2 +23.3 95 +32 +32 очень
душно
1011.5 1008.8
00 18.02 ЮВ 2 30 км 9/4 450 м
[Cb cap Ac lent Ci fib]
+24.5 +23.7 95 +33 +34 очень
душно
1013.6 1010.9 +24.0
03 18.02 ЮВ 2 30 км 9/5 420 м
[Cu med, cong Ac trans Ci sp]
+27.9 +24.1 80 +39 +44 очень
душно
1014.8 1012.1
06 18.02 штиль 0 30 км 9/5 450 м
[Cb cap Ac lent Ci fib]
+31.3 +25.2 70 +45 +52 опасность
перегрева
1011.8 1009.1
09 18.02 СЗ 4 30 км 9/4 450 м
[Cb cap Ac lent Ci fib]
+30.5 +25.3 74 +44 +45 опасность
перегрева
1010.2 1007.5
12 18.02 СВ 1 18 км гроза без осадков 9/4 450 м
[Cb cap Ac trans Ci fib]
+26.7 +24.9 90 +38 +38 очень
душно
1011.9 1009.2 +31.7
15 18.02 В 1 18 км {гроза} 9/3 480 м
[Sc Ac trans Ci fib]
+25.3 +24.8 97 +36 +36 очень
душно
1013.5 1010.8
18 18.02 ЮВ 2 18 км 9/4 480 м
[Sc Ac trans Ci fib]
+24.5 +24.4 99 +34 +34 очень
душно
1012.1 1009.4
21 18.02 ЮВ 1 18 км 9/3 480 м
[Sc Ac trans Ci fib]
+23.7 +23.4 98 +32 +32 очень
душно
1011.0 1008.3
00 19.02 СВ 1 30 км 9/1 360 м
[Sc Ac trans Ci fib]
+24.8 +24.1 96 +34 +36 очень
душно
1013.0 1010.3 +23.1
03 19.02 ЮВ 2 30 км 8/1 480 м
[Cu med, cong Ac lent Ci fib]
+30.8 +24.0 67 +42 +52 опасность
перегрева
1013.7 1011.0
06 19.02 СЗ 4 30 км 6/1 480 м
[Cu hum Ac lent Ci fib]
+32.2 +25.4 67 +46 +54 опасность
перегрева
1011.3 1008.6
09 19.02 СЗ 4 30 км 9/3 450 м
[Cb cap Ac lent Ci fib]
+30.7 +25.8 75 +46 +46 опасность
перегрева
1010.2 1007.5
12 19.02 С 2 18 км 9/3 420 м
[Sc Ac trans Ci fib]
+27.7 +25.5 88 +41 +41 опасность
перегрева
1012.0 1009.3 +32.7
15 19.02 В 1 18 км 9/3 480 м
[Sc Ac trans Ci fib]
+26.4 +25.2 93 +38 +38 очень
душно
1013.8 1011.1
18 19.02 ЮВ 1 18 км 9/3 480 м
[Sc Ac trans Ci fib]
+25.6 +25.0 96 +36 +36 очень
душно
1013.2 1010.5
21 19.02 В 1 18 км гроза без осадков 9/5 450 м
[Cb cap Ac trans Ci fib]
+24.8 +24.7 99 +35 +35 очень
душно
1011.6 1008.9
00 20.02 ЮВ 1 8000 м гроза без осадков 9/5 450 м
[Cb cap Ac trans Ci fib]
+26.6 +25.6 94 +39 +40 очень
душно
1013.7 1011.0 +24.7
03 20.02 СЗ 3 18 км мгла 9/5 450 м
[Cb cap Ac trans Ci sp]
+29.6 +26.5 83 +45 +50 опасность
перегрева
1014.2 1011.5

 

Местоположение метеостанции Бинталу (Малайзия): широта 3.20 долгота 113.03 высота над уровнем моря 5 м.

В архиве по умолчанию представлена погода в Бинталу за последнюю неделю. Архивные данные за месяц целиком и за предыдущие месяцы, начиная с января 2011 года, Вы можете получить, выбрав интересующий диапазон дат из раскрывающегося списка и нажав кнопку "Ввод!".


*Определитесь, кто Вы:
робот инопланетянин человек

Внимание! Время в таблицах - всемирное. Для получения местного времени необходимо прибавить поправку, которая равна 8 ч.

Смотрите также архив погоды в соседних городах и на ближайших метеорологических станциях:

Погода в Мири (Малайзия) (164 км)
Погода в Сибу (Малайзия) (165 км)
Погода на Путусиббау (Индонезия) (263 км)
Погода в Бруней аэропорту (Бруней) (285 км)
Погода в Лонгбаване (Индонезия) (300 км)
Погода в Лабуане (Малайзия) (339 км)
Погода в Кучинге (Малайзия) (356 км)
Погода в Синтанге (Индонезия) (381 км)
Погода в Нангапинохе (Индонезия) (419 км)
Погода в Парохе (Индонезия) (444 км)

Пояснения к столбцам:

Ветер - указаны скорость ветра в м/с - средняя за 10 мин, порывы в срок и между сроками (в фигурных скобках) и направление, откуда дует ветер: С - северный, СВ - северо-восточный, В - восточный, ЮВ - юго-восточный, Ю - южный, ЮЗ - юго-западный, З - западный, СЗ - северо-западный.
Видимость - горизонтальная дальность видимости в метрах или километрах. При видимости от 1 до 10 км при отсутствии осадков обычно наблюдается дымка, при ухудшении видимости до 1 км и менее - туман. В сухую погоду видимость может ухудшаться дымом, пылью или мглою.
Явления - указаны атмосферные явления, наблюдавшиеся в срок или в последний час перед сроком; фигурными скобками обозначены явления, наблюдавшиеся между сроками (за 1-3 часа до срока); квадратными скобками обозначены град или гололедные отложения с указанием их диаметра в мм.
Облачность - указаны через наклонную черту общая и нижняя облачность в баллах и высота нижней границы облаков в метрах; квадратными скобками обозначены формы облаков: Ci - перистые, Cs - перисто-слоистые, Cc - перисто-кучевые, Ac - высококучевые, As - высокослоистые, Sc - слоисто-кучевые, Ns - слоисто-дождевые, Cu - кучевые, Cb - кучево-дождевые. Подробнее классификацию облаков см. в Атласе облаков (PDF).
T - Температура воздуха - температура, измеренная на высоте 2 м над землей.
Td - Температура точки росы - температура, при понижении до которой содержащийся в воздухе водяной пар достигнет насыщения.
f - Относительная влажность воздуха - влажноcть воздуха, измеренная на высоте 2 м над землей.
Te - Эффективная температура - температура, которую ощущает одетый по сезону человек в тени. Характеристика душности погоды. При расчете учитывается влияние влажности воздуха и скорости ветра на теплоощущения человека.
Tes - Эффективная температура на солнце - температура, которую ощущает человек, с поправкой на солнечный нагрев. Характеристика знойности погоды. Зависит от высоты солнца над горизонтом, облачности и скорости ветра. Ночью, в пасмурную погоду, а также при ветре 12 м/с и более поправка равна нулю.
P - Атмосферное давление - приведенное к уровню моря атмосферное давление.
Po - Атмосферное давление - измеренное на уровне метеостанции атмосферное давление.
Tmin - Минимальная температура - минимум температуры воздуха на высоте 2 м над землей.
Tmax - Максимальная температура - максимум температуры воздуха на высоте 2 м над землей.
R - Количество осадков - Количество выпавших осадков за период времени, мм. При наведении курсора мыши на число - период времени, за который выпало указанное количество осадков.
R24 - Количество осадков - Количество выпавших осадков за 24 часа, мм.
S - Снежный покров - Высота снежного покрова, см. При наведении курсора мыши на число - состояние снежного покрова и степень покрытия местности в баллах.